TimeCST,TemperatureF,Dew PointF,Humidity,Sea Level PressureIn,VisibilityMPH,Wind Direction,Wind SpeedMPH,Gust SpeedMPH,PrecipitationIn,Events,Conditions,WindDirDegrees,DateUTC
12:15 AM,-18.4,-23.8,76,29.95,2.0,NNW,23.0,-,N/A,Rain,Freezing Rain,330,2013-01-31 06:15:00
12:35 AM,-18.4,-23.8,76,29.95,2.0,NNW,24.2,-,N/A,Snow,Light Snow,330,2013-01-31 06:35:00
12:55 AM,-18.4,-22.0,84,29.96,1.8,NNW,24.2,-,N/A,Rain,Freezing Rain,330,2013-01-31 06:55:00
1:15 AM,-18.4,-23.8,76,29.96,3.0,NNW,21.9,28.8,N/A,Rain,Freezing Rain,330,2013-01-31 07:15:00
1:35 AM,-18.4,-23.8,76,29.97,2.5,NNW,24.2,28.8,N/A,Rain,Freezing Rain,330,2013-01-31 07:35:00
1:55 AM,-18.4,-23.8,76,29.97,3.0,NNW,23.0,-,N/A,,Haze,330,2013-01-31 07:55:00
2:15 AM,-18.4,-23.8,76,29.98,2.5,NNW,24.2,-,N/A,Snow,Light Snow,330,2013-01-31 08:15:00
2:35 AM,-18.4,-23.8,76,29.99,2.5,NNW,25.3,29.9,N/A,,Haze,330,2013-01-31 08:35:00
2:55 AM,-18.4,-23.8,76,30.00,2.5,NNW,25.3,-,N/A,,Haze,330,2013-01-31 08:55:00
3:15 AM,-18.4,-23.8,76,30.01,1.8,NNW,25.3,32.2,N/A,Snow,Light Snow,330,2013-01-31 09:15:00
3:35 AM,-18.4,-22.0,84,30.01,1.0,NNW,28.8,-,N/A,Snow,Light Snow,330,2013-01-31 09:35:00
3:55 AM,-18.4,-22.0,84,30.02,1.2,NNW,26.5,32.2,N/A,Snow,Light Snow,330,2013-01-31 09:55:00
4:15 AM,-16.6,-22.0,76,30.03,1.8,NNW,23.0,29.9,N/A,Snow,Light Snow,330,2013-01-31 10:15:00
4:35 AM,-16.6,-22.0,76,30.03,1.2,NNW,27.6,33.4,N/A,Rain,Freezing Rain,330,2013-01-31 10:35:00
4:55 AM,-18.4,-22.0,84,30.04,1.2,NNW,28.8,32.2,N/A,Snow,Light Snow,330,2013-01-31 10:55:00
5:15 AM,-18.4,-23.8,76,30.04,1.0,NNW,28.8,-,N/A,Snow,Light Snow,330,2013-01-31 11:15:00
5:35 AM,-18.4,-23.8,76,30.06,1.5,NNW,25.3,32.2,0.01,Snow,Light Snow,330,2013-01-31 11:35:00
5:55 AM,-16.6,-22.0,76,30.07,2.0,NNW,24.2,33.4,0.01,Snow,Light Snow,330,2013-01-31 11:55:00
6:15 AM,-16.6,-22.0,76,30.07,2.5,NNW,23.0,-,N/A,,Haze,330,2013-01-31 12:15:00
6:35 AM,-18.4,-23.8,76,30.08,3.0,NNW,24.2,29.9,N/A,,Haze,330,2013-01-31 12:35:00
6:55 AM,-18.4,-25.6,70,30.10,5.0,NNW,23.0,27.6,N/A,,Haze,330,2013-01-31 12:55:00
7:15 AM,-18.4,-25.6,70,30.10,4.0,NNW,24.2,29.9,N/A,,Haze,330,2013-01-31 13:15:00
7:35 AM,-20.2,-25.6,76,30.10,2.5,NNW,27.6,-,N/A,Snow,Light Snow,330,2013-01-31 13:35:00
7:55 AM,-20.2,-27.4,69,30.11,1.8,NW,24.2,-,N/A,Snow,Light Snow,320,2013-01-31 13:55:00
8:15 AM,-20.2,-27.4,69,30.13,2.0,NNW,25.3,-,N/A,,Haze,330,2013-01-31 14:15:00
8:35 AM,-20.2,-27.4,69,30.13,1.5,NNW,24.2,-,N/A,,Haze,330,2013-01-31 14:35:00
8:55 AM,-20.2,-27.4,69,30.14,1.0,NNW,25.3,31.1,N/A,Snow,Light Snow,330,2013-01-31 14:55:00
9:15 AM,-20.2,-27.4,69,30.14,1.2,NNW,26.5,-,N/A,,Haze,330,2013-01-31 15:15:00
9:35 AM,-20.2,-27.4,69,30.14,1.0,NNW,26.5,-,N/A,Snow,Light Snow,330,2013-01-31 15:35:00
9:55 AM,-20.2,-27.4,69,30.15,1.2,NNW,25.3,32.2,N/A,,Haze,330,2013-01-31 15:55:00
10:15 AM,-18.4,-25.6,70,30.16,1.5,NW,25.3,31.1,N/A,,Haze,320,2013-01-31 16:15:00
10:35 AM,-18.4,-25.6,70,30.16,1.8,NNW,25.3,29.9,N/A,,Haze,330,2013-01-31 16:35:00
10:55 AM,-18.4,-25.6,70,30.16,1.8,NNW,23.0,29.9,N/A,Snow,Light Snow,330,2013-01-31 16:55:00
11:15 AM,-18.4,-25.6,70,30.17,3.0,NW,23.0,31.1,N/A,,Haze,320,2013-01-31 17:15:00
11:35 AM,-18.4,-25.6,70,30.18,9.0,NW,19.6,-,N/A,,Clear,320,2013-01-31 17:35:00
11:55 AM,-16.6,-25.6,64,30.18,10.0,NW,19.6,23.0,N/A,,Clear,320,2013-01-31 17:55:00
12:15 PM,-16.6,-23.8,70,30.18,10.0,NW,17.3,23.0,N/A,,Clear,320,2013-01-31 18:15:00
12:35 PM,-16.6,-23.8,70,30.18,9.0,NW,19.6,-,N/A,,Clear,320,2013-01-31 18:35:00
12:55 PM,-13.0,-22.0,64,30.18,10.0,NNW,15.0,-,N/A,,Clear,330,2013-01-31 18:55:00
1:15 PM,-13.0,-22.0,64,30.18,10.0,NNW,11.5,-,N/A,,Clear,340,2013-01-31 19:15:00
1:35 PM,-11.2,-22.0,59,30.17,10.0,NNW,10.4,-,N/A,,Clear,340,2013-01-31 19:35:00
1:55 PM,-9999,-9999,N/A,30.17,10.0,NNW,9.2,-,N/A,,Clear,340,2013-01-31 19:55:00
2:15 PM,-11.2,-22.0,59,30.17,10.0,NNW,12.7,16.1,N/A,,Clear,340,2013-01-31 20:15:00
2:35 PM,-11.2,-22.0,59,30.16,10.0,WNW,11.5,16.1,N/A,,Clear,300,2013-01-31 20:35:00
2:55 PM,-11.2,-22.0,59,30.16,10.0,North,8.1,-,N/A,,Clear,350,2013-01-31 20:55:00
3:15 PM,-11.2,-22.0,59,30.16,10.0,NNW,5.8,-,N/A,,Clear,340,2013-01-31 21:15:00
3:35 PM,-9.4,-20.2,59,30.16,10.0,NW,13.8,-,N/A,,Clear,310,2013-01-31 21:35:00
3:55 PM,-9.4,-22.0,54,30.16,10.0,WNW,16.1,-,N/A,,Clear,300,2013-01-31 21:55:00
4:15 PM,-11.2,-22.0,59,30.16,10.0,NW,17.3,21.9,N/A,,Clear,310,2013-01-31 22:15:00
4:35 PM,-11.2,-22.0,59,30.16,10.0,NNW,11.5,-,N/A,,Clear,330,2013-01-31 22:35:00
4:55 PM,-13.0,-22.0,64,30.16,10.0,NW,10.4,-,N/A,,Clear,320,2013-01-31 22:55:00
5:15 PM,-13.0,-22.0,64,30.16,10.0,NW,9.2,-,N/A,,Clear,310,2013-01-31 23:15:00
5:35 PM,-14.8,-23.8,64,30.16,10.0,West,10.4,-,N/A,,Clear,280,2013-01-31 23:35:00
5:55 PM,-16.6,-23.8,70,30.16,10.0,NW,9.2,-,N/A,,Clear,310,2013-01-31 23:55:00
6:15 PM,-16.6,-25.6,64,30.17,10.0,WNW,12.7,-,N/A,,Clear,290,2013-02-01 00:15:00
6:35 PM,-16.6,-25.6,64,30.17,10.0,WNW,11.5,-,N/A,,Clear,290,2013-02-01 00:35:00
7:15 PM,-18.4,-25.6,70,30.16,10.0,WNW,13.8,-,N/A,,Clear,300,2013-02-01 01:15:00
7:35 PM,-18.4,-25.6,70,30.16,10.0,WNW,11.5,-,N/A,,Clear,290,2013-02-01 01:35:00
7:55 PM,-18.4,-25.6,70,30.16,10.0,West,11.5,-,N/A,,Clear,280,2013-02-01 01:55:00
8:15 PM,-18.4,-25.6,70,30.15,10.0,WNW,11.5,-,N/A,,Clear,290,2013-02-01 02:15:00
8:35 PM,-18.4,-25.6,70,30.15,10.0,WNW,15.0,-,N/A,,Clear,300,2013-02-01 02:35:00
8:55 PM,-16.6,-25.6,64,30.15,10.0,WNW,17.3,-,N/A,,Clear,300,2013-02-01 02:55:00
9:15 PM,-16.6,-25.6,64,30.14,10.0,NW,12.7,-,N/A,,Clear,310,2013-02-01 03:15:00
9:35 PM,-18.4,-25.6,70,30.13,10.0,NW,10.4,-,N/A,,Clear,310,2013-02-01 03:35:00
9:55 PM,-18.4,-25.6,70,30.14,10.0,NW,6.9,-,N/A,,Clear,310,2013-02-01 03:55:00
10:15 PM,-18.4,-25.6,70,30.14,10.0,Calm,Calm,-,N/A,,Clear,0,2013-02-01 04:15:00
10:35 PM,-23.8,-29.2,76,30.13,10.0,Calm,Calm,-,N/A,,Clear,0,2013-02-01 04:35:00
10:55 PM,-20.2,-25.6,76,30.12,10.0,NNE,3.5,-,N/A,,Clear,20,2013-02-01 04:55:00
11:15 PM,-23.8,-31.0,69,30.12,10.0,SW,6.9,-,N/A,,Clear,220,2013-02-01 05:15:00
11:35 PM,-23.8,-29.2,76,30.11,10.0,SSW,6.9,-,N/A,,Clear,200,2013-02-01 05:35:00
11:55 PM,-23.8,-29.2,76,30.11,10.0,SSW,6.9,-,N/A,,Clear,210,2013-02-01 05:55:00